[[{"header":{"parameterUnit":"m.s-1","parameterCategory":1,"la1":30.2991,"la2":30.254,"lo1":-89.0895,"lo2":-89.0444,"dy":0.0017,"dx":0.0017,"nx":28,"ny":28,"refTime":"2025-06-10T03:00:00:Z","depth":0,"parameterNumber":2,"parameterNumberName":"U-component_of_WINDS"},"data":[0,0,0,0,0,0,0,0,0,0,0,0,0,0,0,0,0,0,0,0,0,0,0,0,0,0,0,0,0,0,0,0,0,0,0,0,0,0,0,0,0,0,0,0,0,0,0,0,0,0,0,0,0,0,0,0,0,0,-0.308,-0.308,0,-0.3047,-0.3046,-0.3046,-0.3023,-0.3022,-0.3022,-0.3022,-0.2987,-0.2986,-0.2986,0,0,0,0,0,0,0,0,0,0,0,0,0,-0.3124,-0.3124,-0.308,-0.308,-0.3079,-0.3047,-0.3046,-0.3046,-0.3023,-0.3022,-0.3022,-0.3022,-0.2987,-0.2986,-0.2986,0,0,0,0,0,0,0,0,0,0,0,0,0,-0.3099,-0.3123,-0.308,-0.3064,-0.3062,-0.3047,-0.3046,-0.3046,-0.3023,-0.3022,-0.3022,-0.3022,-0.2988,-0.2987,-0.2985,-0.2984,0,0,-0.2982,-0.2981,0,0,0,0,0,0,0,0,-0.3101,-0.3098,-0.3067,-0.3065,-0.3063,-0.3038,-0.3049,-0.3025,-0.3023,-0.3038,-0.3022,-0.3022,-0.3004,-0.3002,-0.2996,-0.2982,-0.298,-0.2982,-0.2981,-0.2981,-0.298,0,0,0,0,0,0,0,-0.3103,-0.3099,-0.3067,-0.3066,-0.3064,-0.3058,-0.3054,-0.3044,-0.3023,-0.3036,-0.3034,-0.3031,-0.3003,-0.2997,-0.2995,-0.298,-0.2982,-0.2981,-0.298,-0.298,-0.2964,-0.2964,0,0,0,0,0,0,-0.3107,-0.3101,-0.3068,-0.3066,-0.3082,-0.3058,-0.3053,-0.3047,-0.3023,-0.3019,-0.3031,-0.303,-0.2999,-0.2996,-0.2994,-0.2991,-0.2981,-0.298,-0.2979,-0.2964,-0.2964,-0.2965,0,0,0,0,0,0,-0.3108,-0.3104,-0.3069,-0.3083,-0.3078,-0.3057,-0.305,-0.3046,-0.304,-0.3019,-0.3015,-0.3029,-0.2999,-0.2995,-0.2987,-0.299,-0.2979,-0.2978,-0.2964,-0.2964,-0.2964,-0.2985,0,0,0,0,0,0,-0.3109,-0.3105,-0.3104,-0.3083,-0.3077,-0.3063,-0.305,-0.3046,-0.3038,-0.3036,-0.3016,-0.3012,-0.2999,-0.2989,-0.2986,-0.2988,-0.2977,-0.2963,-0.2964,-0.2964,-0.2984,-0.2986,-0.2988,0,0,0,0,0,-0.3111,-0.311,-0.3104,-0.31,-0.3075,-0.3063,-0.306,-0.3044,-0.3038,-0.3037,-0.3024,-0.3013,-0.299,-0.2988,-0.2984,-0.2986,-0.2963,-0.2964,-0.2964,-0.2983,-0.2986,-0.2988,0,0,0,0,0,0,-0.3131,-0.3107,-0.31,-0.3092,-0.308,-0.3059,-0.3057,-0.3047,-0.3036,-0.3034,-0.3015,-0.3011,-0.3005,-0.2994,-0.2993,-0.2984,-0.2975,-0.2975,-0.2991,-0.2993,-0.2995,-0.2998,-0.2976,0,0,0,0,0,-0.3135,-0.3127,-0.3106,-0.3102,-0.3096,-0.3078,-0.3071,-0.3061,-0.3047,-0.3042,-0.3028,-0.3015,-0.3005,-0.2998,-0.2988,-0.2983,-0.2979,-0.2982,-0.2984,-0.2986,-0.2986,-0.2984,-0.2986,-0.2967,-0.2967,-0.2967,0,0,-0.3142,-0.3128,-0.3124,-0.3105,-0.3094,-0.3087,-0.3073,-0.3065,-0.3059,-0.304,-0.3031,-0.3021,-0.3005,-0.2999,-0.2995,-0.299,-0.2991,-0.2987,-0.2989,-0.2988,-0.2985,-0.2987,-0.2989,-0.2967,-0.2967,-0.2967,0,0,-0.3152,-0.314,-0.3136,-0.3125,-0.3109,-0.3098,-0.3097,-0.3078,-0.307,-0.3061,-0.3047,-0.304,-0.3022,-0.3012,-0.3005,-0.3013,-0.3002,-0.301,-0.302,-0.3018,-0.302,-0.3021,-0.3025,-0.3026,-0.301,-0.301,-0.301,0,-0.3163,-0.3151,-0.3135,-0.3128,-0.3121,-0.3104,-0.3099,-0.309,-0.3071,-0.3067,-0.3062,-0.3041,-0.3029,-0.302,-0.3023,-0.3017,-0.3016,-0.3012,-0.3021,-0.3022,-0.3023,-0.3026,-0.3028,-0.3011,-0.3011,-0.3011,-0.3011,0,-0.3166,-0.3158,-0.3156,-0.3139,-0.3132,-0.3126,-0.311,-0.3104,-0.3094,-0.3083,-0.3075,-0.3061,-0.3047,-0.3045,-0.3034,-0.3035,-0.3033,-0.3024,-0.3015,-0.3026,-0.3029,-0.303,-0.3012,-0.3012,-0.3012,-0.3012,0,0,-0.3186,-0.3162,-0.3162,-0.3154,-0.3136,-0.313,-0.3124,-0.3112,-0.3108,-0.3096,-0.3091,-0.3077,-0.307,-0.3062,-0.3051,-0.3049,-0.3057,-0.3041,-0.304,-0.3045,-0.3059,-0.3066,-0.3067,-0.305,-0.3051,-0.3051,-0.306,0,-0.3194,-0.3183,-0.3169,-0.3162,-0.3155,-0.314,-0.3135,-0.3124,-0.3113,-0.3106,-0.3095,-0.3086,-0.3076,-0.3071,-0.3069,-0.3057,-0.306,-0.3056,-0.3046,-0.3046,-0.3051,-0.3068,-0.3075,-0.3085,-0.3061,-0.3061,-0.3061,0,-0.32,-0.319,-0.3184,-0.3168,-0.3164,-0.316,-0.3148,-0.3141,-0.3128,-0.3121,-0.3113,-0.3101,-0.3095,-0.3087,-0.3078,-0.3076,-0.3071,-0.3065,-0.3065,-0.3064,-0.3055,-0.3068,-0.3087,-0.3089,-0.3063,-0.3063,-0.3063,0,-0.3217,-0.3202,-0.3196,-0.319,-0.3171,-0.3169,-0.3161,-0.3148,-0.3142,-0.3132,-0.3128,-0.3117,-0.3111,-0.3103,-0.3089,-0.3084,-0.3083,-0.3073,-0.3077,-0.3078,-0.3078,-0.3078,-0.3097,-0.3074,-0.3074,-0.3074,-0.3074,0,-0.3227,-0.3224,-0.3204,-0.32,-0.3197,-0.3181,-0.3178,-0.3168,-0.3157,-0.3152,-0.3138,-0.3133,-0.3115,-0.3108,-0.3097,-0.3093,-0.309,-0.3084,-0.3082,-0.3086,-0.3087,-0.3083,-0.3082,-0.3074,-0.3074,-0.3074,-0.3074,0,-0.3245,-0.3231,-0.3225,-0.3207,-0.3203,-0.3201,-0.3187,-0.3183,-0.3173,-0.3166,-0.3164,-0.3148,-0.3139,-0.3125,-0.3112,-0.3105,-0.3103,-0.3097,-0.3107,-0.3106,-0.3111,-0.3111,-0.3129,-0.3131,-0.3106,-0.3106,-0.3106,0,-0.3253,-0.325,-0.3233,-0.3229,-0.3222,-0.3215,-0.3209,-0.3194,-0.3188,-0.3175,-0.3173,-0.3164,-0.3156,-0.3143,-0.313,-0.3121,-0.3116,-0.3123,-0.3114,-0.3119,-0.3117,-0.3118,-0.3118,-0.3125,-0.3125,-0.3125,-0.3125,0,-0.3267,-0.3261,-0.3254,-0.3244,-0.3238,-0.3229,-0.322,-0.3218,-0.32,-0.3195,-0.3187,-0.3181,-0.3169,-0.316,-0.3149,-0.3141,-0.3131,-0.3128,-0.3129,-0.3134,-0.314,-0.3138,-0.3113,-0.3128,-0.3128,-0.3128,-0.3127,-0.3127,-0.3281,-0.3278,-0.3267,-0.3259,-0.3251,-0.3243,-0.3239,-0.3229,-0.3222,-0.3211,-0.3203,-0.3196,-0.3184,-0.3169,-0.3161,-0.3156,-0.3151,-0.3151,-0.3152,-0.3152,-0.3154,-0.3141,-0.3153,-0.3153,-0.3153,-0.3153,-0.3153,0,-0.3296,-0.3288,-0.3281,-0.3269,-0.3264,-0.3255,-0.3245,-0.3241,-0.3235,-0.3225,-0.3218,-0.3209,-0.3201,-0.3188,-0.3179,-0.3178,-0.3173,-0.3176,-0.3176,-0.3175,-0.3159,-0.316,-0.318,-0.318,-0.318,-0.318,-0.318,-0.318,-0.3303,-0.3299,-0.3291,-0.3283,-0.3275,-0.3269,-0.3264,-0.3257,-0.3249,-0.3241,-0.3234,-0.3226,-0.3215,-0.3206,-0.3198,-0.3195,-0.3193,-0.3197,-0.3192,-0.3178,-0.3175,-0.3173,-0.3174,-0.3197,-0.3197,-0.3209,-0.3209,-0.3209]},{"header":{"parameterUnit":"m.s-1","parameterCategory":1,"la1":30.2991,"la2":30.254,"lo1":-89.0895,"lo2":-89.0444,"dy":0.0017,"dx":0.0017,"nx":28,"ny":28,"refTime":"2025-06-10T03:00:00:Z","depth":0,"parameterNumber":3,"parameterNumberName":"V-component_of_WINDS"},"data":[0,0,0,0,0,0,0,0,0,0,0,0,0,0,0,0,0,0,0,0,0,0,0,0,0,0,0,0,0,0,0,0,0,0,0,0,0,0,0,0,0,0,0,0,0,0,0,0,0,0,0,0,0,0,0,0,0,0,3.8422,3.8422,0,3.8356,3.8355,3.8355,3.8296,3.8296,3.8295,3.8294,3.8223,3.8222,3.822,0,0,0,0,0,0,0,0,0,0,0,0,0,3.8495,3.8494,3.8423,3.8422,3.8421,3.8356,3.8355,3.8354,3.8297,3.8296,3.8295,3.8294,3.8223,3.8222,3.822,0,0,0,0,0,0,0,0,0,0,0,0,0,3.845,3.8494,3.8423,3.8384,3.838,3.8356,3.8355,3.8354,3.8297,3.8296,3.8295,3.8294,3.8224,3.8222,3.822,3.8228,0,0,3.8214,3.8213,0,0,0,0,0,0,0,0,3.8452,3.8447,3.8391,3.8387,3.8382,3.8334,3.8355,3.8312,3.8297,3.8328,3.8294,3.8293,3.826,3.8255,3.8245,3.8224,3.8221,3.8214,3.8213,3.8212,3.8211,0,0,0,0,0,0,0,3.8456,3.845,3.8396,3.839,3.8385,3.8369,3.8362,3.8346,3.83,3.8325,3.8321,3.8314,3.8258,3.8247,3.8243,3.822,3.8214,3.8212,3.8211,3.821,3.8201,3.8202,0,0,0,0,0,0,3.8465,3.8453,3.8398,3.8394,3.8416,3.8369,3.836,3.835,3.8301,3.8292,3.8315,3.8312,3.8251,3.8245,3.824,3.8244,3.8212,3.821,3.8209,3.82,3.8201,3.8202,0,0,0,0,0,0,3.8467,3.8461,3.8401,3.8422,3.8413,3.8368,3.8358,3.8349,3.8338,3.8293,3.8284,3.8313,3.825,3.8243,3.8231,3.8241,3.8209,3.8207,3.8199,3.82,3.8202,3.8254,0,0,0,0,0,0,3.8469,3.8462,3.8465,3.8423,3.8413,3.8395,3.8358,3.8349,3.8336,3.8331,3.8288,3.828,3.8248,3.8234,3.8229,3.8238,3.8206,3.8198,3.82,3.8201,3.8251,3.8257,3.8262,0,0,0,0,0,3.8472,3.8482,3.8466,3.846,3.8416,3.8395,3.8389,3.8353,3.8337,3.8339,3.831,3.8281,3.8241,3.8234,3.8227,3.8235,3.8197,3.8199,3.8201,3.8249,3.8256,3.8262,0,0,0,0,0,0,3.8526,3.8476,3.8457,3.8454,3.843,3.8386,3.8387,3.8362,3.8341,3.8337,3.8293,3.8283,3.8276,3.8255,3.8247,3.8239,3.8215,3.8216,3.8254,3.826,3.8265,3.827,3.8204,0,0,0,0,0,3.8538,3.8526,3.8483,3.8484,3.8473,3.8433,3.8422,3.8397,3.8369,3.8358,3.8328,3.8301,3.8281,3.827,3.825,3.8248,3.8237,3.8251,3.8256,3.8261,3.8261,3.8257,3.8262,3.8209,3.8209,3.8209,0,0,3.8561,3.8533,3.8528,3.8494,3.8472,3.846,3.8424,3.8413,3.8402,3.8356,3.8343,3.832,3.8286,3.8279,3.8275,3.8261,3.8274,3.8264,3.8268,3.8265,3.826,3.8265,3.8269,3.821,3.821,3.821,0,0,3.8598,3.8576,3.8574,3.8553,3.852,3.8493,3.8493,3.8453,3.8436,3.8422,3.8387,3.8373,3.8342,3.8319,3.8304,3.8332,3.8304,3.8327,3.8354,3.835,3.8354,3.8358,3.8366,3.8369,3.8328,3.8328,3.8328,0,3.8631,3.8612,3.8576,3.8566,3.8552,3.8511,3.8507,3.8488,3.845,3.844,3.8426,3.8386,3.8361,3.8347,3.8354,3.8343,3.834,3.833,3.8357,3.836,3.8363,3.837,3.8373,3.8331,3.833,3.833,3.833,0,3.8653,3.864,3.8643,3.8608,3.8594,3.8588,3.8549,3.8539,3.8516,3.849,3.8476,3.8444,3.8416,3.8412,3.8388,3.8394,3.8387,3.8366,3.834,3.8371,3.8377,3.8379,3.8335,3.8334,3.8333,3.8332,0,0,3.872,3.8666,3.8667,3.8651,3.8612,3.86,3.8592,3.8566,3.8557,3.8533,3.8523,3.8498,3.8478,3.846,3.8434,3.8431,3.8452,3.841,3.8408,3.8417,3.8455,3.8469,3.8473,3.8435,3.8435,3.8436,3.8457,0,3.8748,3.8731,3.8699,3.8691,3.8678,3.8639,3.8631,3.8606,3.8582,3.8566,3.8538,3.852,3.8497,3.8485,3.8481,3.8451,3.8459,3.8449,3.8423,3.8423,3.8431,3.8477,3.8492,3.8514,3.8459,3.8459,3.846,0,3.8779,3.8757,3.8749,3.8711,3.8704,3.8698,3.867,3.8657,3.8626,3.8609,3.859,3.8561,3.8548,3.8526,3.8506,3.85,3.8488,3.8471,3.8471,3.8466,3.8442,3.847,3.852,3.8523,3.8463,3.8463,3.8463,0,3.8826,3.8795,3.8786,3.8773,3.8728,3.8724,3.8705,3.8674,3.8661,3.8637,3.8627,3.8602,3.8588,3.8568,3.8532,3.852,3.8516,3.8492,3.8499,3.85,3.8498,3.8498,3.8545,3.8494,3.8494,3.8494,3.8494,0,3.8859,3.8855,3.8806,3.88,3.8794,3.8757,3.8751,3.8728,3.8701,3.8689,3.8654,3.8642,3.8597,3.858,3.8553,3.8539,3.8534,3.8517,3.851,3.8519,3.8521,3.8509,3.8506,3.8495,3.8495,3.8494,3.8494,0,3.891,3.8877,3.8864,3.8823,3.8813,3.881,3.8774,3.8766,3.874,3.8725,3.8719,3.8678,3.8656,3.862,3.8587,3.8568,3.856,3.8548,3.857,3.8565,3.8574,3.8573,3.8612,3.8615,3.8565,3.8565,3.8566,0,3.8933,3.8929,3.8888,3.8878,3.886,3.8844,3.883,3.8793,3.878,3.8745,3.8741,3.8717,3.8695,3.8662,3.8628,3.8603,3.8589,3.8604,3.8584,3.8594,3.8586,3.8586,3.8585,3.8608,3.8609,3.8609,3.861,0,3.8976,3.896,3.8942,3.8918,3.8902,3.8882,3.8859,3.8852,3.8809,3.8796,3.8774,3.8758,3.8725,3.87,3.867,3.8649,3.8621,3.8617,3.8617,3.8626,3.8638,3.8629,3.858,3.8615,3.8615,3.8615,3.8614,3.8614,3.9011,3.9005,3.8976,3.8956,3.8936,3.8915,3.8905,3.8879,3.886,3.8831,3.881,3.879,3.8758,3.8715,3.8695,3.8677,3.8665,3.8665,3.8665,3.8665,3.8668,3.8643,3.8672,3.8671,3.8671,3.8671,3.8671,0,3.905,3.903,3.9013,3.8982,3.8967,3.8945,3.8918,3.8906,3.8889,3.8863,3.8843,3.8817,3.8793,3.8758,3.8731,3.8723,3.871,3.8717,3.8716,3.8711,3.8682,3.8683,3.8728,3.8728,3.8728,3.8728,3.8728,3.8728,3.9069,3.9058,3.9038,3.9016,3.8995,3.8975,3.8962,3.8942,3.8921,3.8894,3.8875,3.8852,3.8822,3.8793,3.8769,3.8759,3.875,3.8761,3.8747,3.8719,3.8714,3.8709,3.871,3.876,3.876,3.8778,3.8778,3.8778]}]]